Welcome to the New NWS' Forecast!
Most changes are behind the scenes, but click here for differences you might notice.
Latest weather observations around

Fairfield / Travis Air Force Base (KSUU)

Using English Units (Switch to International System of Units)
Date/ Time (PST) Wind (mph) Vis. (mi) Weather Sky Cond. Temp (°F) Rel. Humidity Wind Chill (°F) Heat Index (°F) Pressure Precip. (in)
Air Dwpt 6 hour Altimeter (inHg) Sea level (inHg) 1 hr 3 hr 6 hr
Max Min
Nov 12 11:58 NNE 8 10 Clear CLR 63 18     17%     30.31 30.33      
Nov 12 10:58 NNE 9 10 Clear CLR 61        %     30.32 30.34      
Nov 12 09:58 ENE 7 5 Haze CLR 54 29     38%     30.32 30.34      
Nov 12 09:38 ENE 7 4 Haze CLR 52 30     43%     30.32 30.34      
Nov 12 08:58 ENE 7 2.5 Haze CLR 47 27     46% 44   30.32 30.34      
Nov 12 08:23 E 3 2.5 Haze CLR 45 25     45% 43   30.31 30.33      
Nov 12 08:13 Calm 3 Haze CLR 43 25     49%     30.31 30.33      
Nov 12 07:58 Calm 2.25 Haze CLR 39 23     52%     30.31 30.33      
Nov 12 07:48 Calm 2.75 Haze CLR 37 23     56%     30.31 30.33      
Nov 12 06:58 WSW 3 5 Haze CLR 32 20     62% 28   30.29 30.31      
Nov 12 05:58 Calm 4 Haze CLR 32 21     65%     30.27 30.29      
Nov 12 04:58 E 3 5 Haze CLR 34 21     58% 31   30.27 30.29      
Nov 12 03:58 NE 7 7 Clear CLR 35 20     53% 29   30.26 30.28      
Nov 12 02:58 ESE 6 3 Haze CLR 37 20     51% 32   30.25 30.27      
Nov 12 01:58 NE 6 3 Haze CLR 38 25     60% 33   30.24 30.26      
Nov 12 00:58   7 Clear CLR 37 21     52%     30.23 30.25      
Nov 11 23:58 Calm 6 Haze CLR 35 20     55%     30.22 30.24      
Nov 11 22:58 Calm 8 Clear CLR 38 21     50%     30.21 30.23      
Nov 11 21:58 N 3 7 Clear CLR 38 19     45% 36   30.19 30.21      
Nov 11 20:58 Calm 8 Clear CLR 39 21     48%     30.17 30.19      
Notice The following observation data may not be complete
Nov 11 19:58 N 5 7 Clear CLR   19      %     30.16 30.18      
Nov 11 18:58 Calm 7 Clear CLR 45 22     40%     30.14 30.16      
Nov 11 17:58 E 6 9 Clear CLR 51 25     36%     30.12 30.14      
Nov 11 16:58 E 6 10 Clear CLR 57 23     26%     30.12 30.14      
Nov 11 15:58 NE 13 10 Clear CLR 68 17     14%     30.12 30.14      
Nov 11 14:58 NE 14 10 Clear CLR 71 14     11%   69 30.1 30.12      
Nov 11 13:58 NNE 17 10 Clear CLR 73 11     9%   70 30.1 30.12      
Nov 11 12:58 NNE 21 10 Clear and Windy CLR 72 10     9%   69 30.1 30.12      
Nov 11 11:58 NNE 21 10 Clear and Windy CLR 68 11     11%     30.11 30.13      
Nov 11 10:58 N 14 10 Clear CLR 66 12     12%     30.11 30.13      
Nov 11 09:58 N 20 10 Clear and Windy CLR 64 12     13%     30.09 30.11      
Nov 11 08:58 N 20 10 Clear and Windy CLR 61 14     16%     30.08 30.1      
Nov 11 07:58 N 17 10 Clear CLR 59 14     17%     30.07 30.09      
Nov 11 06:58 N 18 10 Clear CLR 56 13     18%     30.05 30.07      
Nov 11 05:58 N 13 10 Clear CLR 56 12     17%     30.03 30.05      
Nov 11 04:58 N 8 10 Clear CLR 58 11     15%     30.02 30.04      
Nov 11 03:58 NW 6 9 Clear CLR 60 12     15%     30.01 30.03      
Nov 11 02:58 W 3 6 Haze CLR 59 13     16%     30.01 30.03      
Nov 11 01:58 Calm 7 Clear CLR 35 24     64%     30.02 30.04      
Nov 11 00:58 Calm 6 Haze CLR 49 19     31%     30.01 30.03      
Nov 10 23:58 ESE 3 5 Haze CLR 44 21     40% 43   30 30.02      
Nov 10 22:58 Calm 6 Haze CLR 38 22     52%     30 30.02      
Nov 10 21:58 WSW 3 7 Clear CLR 37 22     54% 34   29.99 30.01      
Nov 10 20:58 W 3 6 Haze CLR 40 26     56% 38   29.97 29.99      
Nov 10 19:58 W 6 4 Haze CLR 43 25     49% 39   29.96 29.98      
Nov 10 18:58 WSW 3 5 Haze CLR 46 27     46% 45   29.96 29.98      
Nov 10 17:58 W 5 6 Haze CLR 48 26     42% 46   29.96 29.98      
Nov 10 17:28 W 3 3 Haze CLR 48 27     43% 47   29.95 29.97      
Nov 10 17:18 Calm 2.25 Haze CLR 50 28     43%     29.96 29.98      
Nov 10 16:58 W 3 5 Haze CLR 54 30     39%     29.96 29.98      
Nov 10 15:58 W 6 4 Haze CLR 63 21     20%     29.96 29.98      
Nov 10 14:58 Calm 4 Haze CLR 66 22     18%     29.97 29.99      
Nov 10 13:58 NE 5 4 Haze CLR 66 21     18%     29.98 30      
Nov 10 12:58 Calm 5 Haze CLR 64 21     19%     30 30.02      
Nov 10 11:58 N 5 6 Haze CLR 62 19     19%     30.02 30.04      
Nov 10 10:58 Calm 5 Haze CLR 57 20     23%     30.06 30.08      
Nov 10 09:58 Calm 5 Haze CLR 50 21     32%     30.07 30.09      
Nov 10 08:58 Calm 10 Clear CLR 41 21     45%     30.07 30.09      
Nov 10 07:58 Calm 10 Clear CLR 33 18     53%     30.06 30.08      
Nov 10 06:58 Calm 10 Clear CLR 32 17     55%     30.05 30.07      
Nov 10 05:58 Calm 10 Clear CLR 31 16     53%     30.04 30.06      
Nov 10 04:58 Calm 10 Clear CLR 33 17     52%     30.04 30.06      
Nov 10 03:58 E 5 10 Clear CLR 31 18     59% 26   30.04 30.06      
Nov 10 02:58 Calm 10 Clear CLR 34 21     59%     30.06 30.08      
Nov 10 01:58 ESE 5 10 Clear CLR 37 23     56% 33   30.07 30.09      
Nov 10 00:58 Calm 10 Clear CLR 35 22     59%     30.08 30.1      
Nov 09 23:58 SE 3 10 Clear CLR 35 20     53% 33   30.08 30.1      
Nov 09 22:58 Calm 10 Clear CLR 37 20     48%     30.08 30.1      
Nov 09 21:58 NNE 3 10 Clear CLR 33 19     56% 30   30.09 30.11      
Nov 09 20:58 Calm 10 Clear CLR 39 22     50%     30.08 30.1      
Nov 09 19:58 Calm 10 Clear CLR 37 16     41%     30.07 30.09      
Nov 09 18:58 Calm 10 Clear CLR 43 19     38%     30.07 30.09      
Nov 09 17:58 Calm 10 Clear CLR 46 17     31%     30.06 30.08      
Nov 09 16:58 W 5 10 Clear CLR 52 18     26%     30.06 30.08      
Nov 09 15:58 W 5 10 Clear CLR 55 20     25%     30.07 30.09      
Nov 09 14:58 W 5 10 Clear CLR 64 14     14%     30.08 30.1      
Nov 09 13:58 WSW 3 10 Clear CLR 64 14     14%     30.1 30.12      
Nov 09 12:58 Calm 10 Clear CLR 64 12     13%     30.12 30.14      
Nov 09 11:58 NNE 3 10 Clear CLR 62 16     17%     30.15 30.17      
Nov 09 10:58 Calm 10 Clear CLR 59 18     20%     30.17 30.19      
Nov 09 09:58 Calm 9 Clear CLR 55 17     22%     30.17 30.19 0   0
Nov 09 08:58 Calm 10 Clear CLR 50 16     25%     30.18 30.2      
Nov 09 07:58 Calm 10 Clear CLR 41 12     30%     30.17 30.19      
Nov 09 06:58 WNW 3 10 Clear CLR 40 11     30% 38   30.15 30.17      
Nov 09 05:58 WNW 6 10 Clear CLR 46 10     23% 43   30.14 30.16      
Nov 09 04:58 NE 5 10 Clear CLR 43 12     28% 40   30.13 30.15      
Notice The following observation data may not be complete
Nov 09 03:58 E 6 10 Clear CLR   17      %     30.14 30.16      
Nov 09 02:58 ESE 6 10 Clear CLR 44 15     31% 40   30.14 30.16      
Nov 09 01:58 NE 5 10 Clear CLR 58 7     13%     30.14 30.16      
Nov 09 00:58 NNE 15 10 Clear CLR 60 7     12%     30.14        
Nov 08 23:58 N 17 10 Clear CLR 62 7     11%     30.12        
Nov 08 22:58 N 17 10 Clear CLR 63 8     11%     30.12        
Nov 08 21:58 N 15 10 Clear CLR 65 9     11%     30.11        
Nov 08 20:58 N 20 10 Clear and Windy CLR 66 10     11%     30.1        
Nov 08 19:58 N 21 10 Clear and Windy CLR 67 10     11%     30.07 30.09      
Nov 08 18:58 N 22 10 Clear and Windy CLR 66 8     10%     30.07 30.09      
Nov 08 17:58 N 20 10 Clear and Windy CLR 66 8     10%     30.05 30.07      
Nov 08 16:58 N 18 10 Clear CLR 67 11     11%     30.05 30.07      
Nov 08 15:58 N 18 6 Haze CLR 70 11     10%   67 30.05 30.07      
Nov 08 14:58 N 23 4 Smoke CLR 72 12     10%   69 30.04 30.06      
Nov 08 13:56 N 25 10 Clear and Windy CLR 72 12     10%   69 30.05 30.07      
Nov 08 12:56 N 26 10 Clear and Breezy CLR 70 11     10%     30.06 30.08      
Nov 08 11:56 N 26 10 Clear and Breezy CLR 68 12     11%     30.08 30.1      
Nov 08 10:56 N 28 10 Clear and Breezy CLR 67 13     12%     30.09 30.11      
Nov 08 09:56 N 28 10 Clear and Breezy CLR 65 13     13%     30.09 30.11      
Nov 08 09:55 N 28 10 Squalls CLR 64 12     13%     30.09 30.11      
Nov 08 08:56 N 22 10 Clear and Windy CLR 62 14     15%     30.09 30.11      
Nov 08 07:58 N 22 10 Clear and Windy CLR 59 14     17%     30.07 30.09      
Nov 08 06:58 N 23 10 Clear and Windy CLR 57 15     19%     30.05 30.07      
Nov 08 05:58 N 21 10 Clear and Windy CLR 57 15     19%     30.06 30.08      
Nov 08 04:58 N 20 10 Clear and Windy CLR 58 15     18%     30.04 30.06      
Nov 08 03:58 N 22 10 Clear and Windy CLR 59 15     18%     30.03 30.05      
Nov 08 02:58 N 14 10 Clear   60 16     18%     30.02 30.04      
Nov 08 01:58 N 14 10 Clear CLR 60 15     17%     30.03 30.05      
Nov 08 00:58 NW 10 10 Clear CLR 60 12     15%     30.03 30.05      
Nov 07 23:58 NNW 9 10 Clear CLR 60 12     15%     30.02 30.04      
Nov 07 22:58 NW 8 10 Clear CLR 61 14     16%     30.02 30.04      
Nov 07 21:58 Calm 10 Clear CLR 58 18     21%     30.01 30.03      
Nov 07 20:58 NW 8 10 Clear CLR 48 26     41% 44   30 30.02      
Notice The following observation data may not be complete
Nov 07 19:58 Calm 10 Clear CLR   26      %     30 30.02      
Nov 07 18:58 Calm 10 Clear CLR 51 27     40%     30 30.02      
Nov 07 17:58 E 3 10 Clear CLR 58 25     28%     29.99 30.01      
Nov 07 16:58 NE 9 10 Clear CLR 65 22     19%     29.98 30      
Nov 07 15:58 NNE 11 10 Clear CLR 73 19     13%   71 29.99 30.01      
Nov 07 14:58 NNE 11 10 Clear CLR 76 19     12%   73 29.99 30.01      
Nov 07 13:58 NNE 10 10 Clear CLR 75 23     14%   73 30 30.02      
Nov 07 12:58 NE 6 10 Clear CLR 74 23     15%   72 30.01 30.03      
Nov 07 11:58 NNE 5 10 Clear CLR 70 23     17%   68 30.03 30.05      
Nov 07 10:58 N 5 10 Clear CLR 67 25     20%     30.05 30.07      
Nov 07 09:58 NNE 9 10 Clear CLR 64 25     23%     30.06 30.08      
Nov 07 08:58 N 5 10 Clear CLR 59 23     25%     30.06 30.08      
Nov 07 07:58 Calm 10 Clear CLR 53 26     35%     30.05 30.07      
Nov 07 06:58 Calm 10 Clear CLR 38        %     30.03 30.05      
Nov 07 01:58 Calm 10 Clear CLR 45 27     49%     30 30.02      
Nov 07 00:58 Calm 10 Clear CLR 43 26     50%     29.99 30.01      
Nov 06 23:58 Calm 10 Clear CLR 41 25     52%     29.99 30.01      
Nov 06 22:58 Calm 10 Clear CLR 43 25     48%     29.99 30.01      
Nov 06 21:58 Calm 10 Clear CLR 51 28     41%     29.98 30      
Nov 06 20:58 W 6 10 Clear CLR 46 27     47% 43   29.96 29.98      
Nov 06 19:58 SW 6 10 Clear CLR 52 27     38%     29.96 29.98      
Nov 06 18:58 Calm 10 Clear CLR 50 26     38%     29.95 29.97      
Nov 06 17:58 Calm 10 Clear CLR 61 29     30%     29.94 29.96      
Nov 06 16:58 Calm 10 Clear CLR 69 29     22%     29.95 29.97      
Nov 06 15:58 SW 7 10 Clear CLR 77        %     29.93 29.95      
Nov 06 14:58 W 6 10 Clear CLR 79        %     29.94 29.96      
Nov 06 13:58 Calm 10 Clear CLR 79        %     29.94 29.96      
Nov 06 12:58 N 14 10 Clear CLR 78 17     10%   76 29.96 29.98      
Nov 06 11:58 WNW 6 10 Clear CLR 74 25     16%   72 29.98 30      
Nov 06 10:58 NW 5 10 Clear CLR 70 29     21%   68 30 30.02      
Nov 06 09:58 SW 5 10 Clear CLR 67 32     27%     30.02 30.04      
Nov 06 08:58 NW 3 10 Clear CLR 65 29     26%     30 30.02      
Nov 06 07:58 WSW 6 10 Clear CLR 53        %     29.99 30.01      
Nov 06 06:58 Calm 10 Clear CLR 47 41     82%     29.97 29.99      
Nov 06 05:58 W 7 10 Clear CLR 45 40     84% 41   29.96 29.98      
Nov 06 04:58 W 5 10 Clear CLR 42 35     75% 39   29.95 29.97      
Notice The following observation data may not be complete
Nov 06 03:58 W 7 10 Clear CLR   33      %     29.94 29.96      
Nov 06 02:58 Calm 10 Clear CLR 43 35     74%     29.94 29.96      
Nov 06 01:58 SSW 6 10 Clear CLR 48 41     76% 46   29.94 29.96      
Nov 06 00:58 Calm 10 Clear CLR 46 35     66%     29.93 29.95      
Nov 05 23:58 W 3 10 Clear CLR 47 35     61% 46   29.92 29.94      
Nov 05 22:58 Calm 10 Clear CLR 51 38     61%     29.91 29.93      
Nov 05 21:58 SSW 10 10 Clear CLR 51 44     75%     29.9 29.92      
Nov 05 20:58 SSW 7 10 Clear CLR 49 37     62% 46   29.89 29.91      
Nov 05 19:58 WNW 5 10 Clear CLR 50 36     58%     29.89 29.91      
Nov 05 18:58 SW 7 10 Clear CLR 53 38     55%     29.87 29.89      
Nov 05 17:58 SW 5 10 Clear CLR 59 38     45%     29.86 29.88      
Nov 05 16:58 SW 3 10 Clear CLR 71        %     29.86 29.88      
Nov 05 15:58 SW 6 10 Clear CLR 78 19     11%   76 29.86 29.88      
Nov 05 14:58 NE 6 10 Clear CLR 80        %     29.87 29.89      
Nov 05 13:58 S 5 10 Clear CLR 81        %     29.88 29.9      
Nov 05 12:58 WSW 5 10 Clear CLR 80        %     29.9 29.92      
Nov 05 11:58 N 9 10 Clear CLR 79        %     29.93 29.95      
Nov 05 10:58 Calm 10 Clear CLR 80 34     19%   78 29.95 29.97      
Nov 05 09:58 Calm 10 Clear CLR 72 37     28%   70 29.97 29.99      
Nov 05 08:58 SW 8 10 Clear CLR 66 49     54%     29.97 29.99      
Nov 05 07:58 WSW 7 10 Clear CLR 60 47     64%     29.96 29.98      
Nov 05 06:58 SW 8 10 Clear CLR 47 44     87% 44   29.94 29.96      
Nov 05 05:58 Calm 10 Clear CLR 52 44     76%     29.94 29.96      
Nov 05 04:58 SW 10 10 Clear CLR 52 44     76%     29.93 29.95      
Nov 05 03:58 SW 10 10 Clear CLR 52 45     76%     29.93 29.95      
Nov 05 02:58 SW 6 10 Clear CLR 52 44     74%     29.93 29.95      
Nov 05 01:58 WSW 9 10 Clear CLR 57 46     68%     29.94 29.96      
Nov 05 00:58 SSW 5 10 Clear CLR 53 46     77%     29.94 29.96      
Nov 04 23:58 Calm 10 Clear CLR 53 47     80%     29.94 29.96      
Nov 04 22:58 S 8 10 Clear CLR 54 47     75%     29.95 29.97      
Nov 04 21:58 SSW 7 10 Clear CLR 54 43     66%     29.94 29.96      
Nov 04 20:58 SSW 6 10 Clear CLR 57 42     58%     29.93 29.95      
Nov 04 19:58 WSW 5 10 Clear CLR 61 41     48%     29.91 29.93      
Nov 04 18:58 W 9 10 Clear CLR 65 44     46%     29.9 29.92      
Nov 04 17:58 WSW 13 10 Clear CLR 68 45     43%     29.89 29.91      
Nov 04 16:58 SW 13 10 Clear CLR 71 45     40%   69 29.88 29.9      
Nov 04 15:58 WSW 14 10 Clear CLR 77 42     29%   76 29.88 29.92      
Nov 04 14:58 SW 11 10 Clear CLR 80 39     23%   79 29.9 29.92      
Nov 04 13:58 SW 8 10 Clear CLR 81 38     21%   79 29.92 29.94      
Nov 04 12:58 SW 11 10 Clear CLR 80 34     19%   78 29.95 29.97      
Nov 04 11:58 SW 9 10 Clear CLR 77 42     28%   76 29.98 30      
Nov 04 10:58 SW 8 10 Clear CLR 75 45     34%   74 29.99 30.01      
Nov 04 09:58 SW 6 10 Clear CLR 71 36     28%   69 30.01 30.03      
Nov 04 08:58 SSW 5 10 Clear CLR 63 42     45%     30.02 30.04      
Nov 04 07:58 Calm 10 Clear CLR 52 43     71%     30.02 30.04      
Nov 04 06:58 Calm 10 Clear CLR 44 36     74%     30.01 30.03      
Notice The following observation data may not be complete
May 15 08:58   10 Clear CLR          %              
May 15 02:58   10 Mostly Cloudy SCT013 BKN100 53 48     82%     29.93 29.95      
May 14 13:58 WSW 23 10 Clear and Windy CLR 67 52     58%     29.91 29.93      
May 14 10:58   10 Clear CLR 62 50     65%     29.95 29.97      
May 13 07:38   10 Partly Cloudy SCT016 55 48     77%     29.94 29.96      
May 12 12:58   9 Clear CLR 81 42     25%   80 29.8 29.82      
May 12 11:58 N 13 10 Clear CLR 79 41     26%   78          
May 12 07:58 N 21 10 Clear and Windy CLR 70 40     34%     29.81 29.83      
May 12 03:58 N 18 10 Clear CLR 65 40     40%     29.79 29.81      
May 12 02:58 N 16 10 Clear CLR 65 40     39%     29.79 29.81      
Jun 11 20:58 WSW 8 10 Clear   53 48     81%     29.93 29.95      
Jun 11 17:58 WNW 6 5 Rain OVC060 53 48     81%     29.95   0    
Jun 11 14:58 WSW 16 10 Clear CLR 71 41     34%   69 29.87 29.89      
Jun 10 19:58   10 Clear   63 45     52%     29.86 29.88      
Jun 10 17:58 WSW 21 8 Clear and Windy CLR 70 46     43%     29.85 29.87      
Jun 10 15:58 WSW 22 10 Clear and Windy CLR 73 45     37%   72 29.86 29.88      
Jun 10 13:32 W 16 10 Mostly Clear FEW055 73 45     36%   72 29.89 29.91      
Jun 10 12:03   10 Clear CLR 73 39     29%   72 29.91 29.93      
Jun 09 22:58 SW 11 10 Clear CLR 55 48     77%     29.92 29.94      
Notice The following observation data may not be complete
Jun 09 16:58   10 Clear CLR          %              
Jun 09 15:58 SW 16 10 Clear CLR 72 47     41%   71 29.89 29.91      
Jun 08 11:58 ESE 6 10 Cloudy BKN028 OVC033 65 52     62%     30.02 30.04 0    
Jun 08 11:17 Calm 10 Cloudy OVC028 61 52     72%     30.02 30.04      
Notice The following observation data may not be complete
Jun 08 11:06   9 Light Rain OVC028          %              
Jun 08 10:58 Calm 7 Light Drizzle OVC028 60 51     73%     30.01 30.03 0   0
Jun 07 12:58   10 Mostly Cloudy FEW080 SCT150 BKN180 BKN210 71 52     52%   70 29.84 29.86      
Notice The following observation data may not be complete
Jun 07 05:58   10 Clear CLR          %              
Jun 06 11:58 WSW 16 10 Clear CLR 75 52     44%   75 29.86 29.88      
Jun 06 10:58 SW 17 10 Clear CLR 71 52     50%   70 29.87 29.89      
Jun 06 01:58   10 Clear CLR 58 50     76%     29.82 29.84      
Jun 05 12:58 SSW 6 10 Clear CLR 84 51     32%   82 29.85 29.87